This is the latest recevied weather packets stored in our database for station/object SQ7RAF-15. If no packets are shown the sender has not sent any weather packets the latest 10 day(s).
| Time | Temp. | Humidity | Pressure | Rain* | Wind** | Luminosity | Snow |
|---|---|---|---|---|---|---|---|
| 1777440633 | 3.33° C | 64% | 1027.3 hPa | 0 mm | - | 130 W/m² | - |
| 1777440329 | 2.78° C | 66% | 1027.3 hPa | 0 mm | - | 127 W/m² | - |
| 1777440041 | 3.33° C | 64% | 1027.2 hPa | 0 mm | - | 118 W/m² | - |
| 1777439721 | 2.78° C | 64% | 1027.2 hPa | 0 mm | - | 119 W/m² | - |
| 1777439433 | 2.78° C | 66% | 1027.2 hPa | 0 mm | - | 108 W/m² | - |
| 1777439146 | 2.78° C | 66% | 1027.1 hPa | 0 mm | - | 95 W/m² | - |
| 1777438843 | 3.33° C | 65% | 1027.1 hPa | 0 mm | - | 81 W/m² | - |
| 1777438521 | 2.78° C | 66% | 1027.1 hPa | 0 mm | - | 80 W/m² | - |
| 1777438234 | 2.22° C | 67% | 1027 hPa | 0 mm | - | 73 W/m² | - |
| 1777437946 | 1.67° C | 67% | 1027 hPa | 0 mm | - | 62 W/m² | - |
| 1777437626 | 1.11° C | 68% | 1027 hPa | 0 mm | - | 49 W/m² | - |
| 1777437337 | 1.11° C | 68% | 1026.9 hPa | 0 mm | - | 39 W/m² | - |
| 1777437018 | 0.56° C | 68% | 1026.8 hPa | 0 mm | - | 28 W/m² | - |
| 1777436729 | 0.56° C | 69% | 1026.9 hPa | 0 mm | - | 27 W/m² | - |
| 1777436441 | 0.56° C | 69% | 1026.8 hPa | 0 mm | - | 26 W/m² | - |
| 1777436153 | 0.56° C | 69% | 1026.8 hPa | 0 mm | - | 22 W/m² | - |
| 1777435817 | 0° C | 69% | 1026.7 hPa | 0 mm | - | 17 W/m² | - |
| 1777435529 | 0° C | 69% | 1026.6 hPa | 0 mm | - | 15 W/m² | - |
| 1777435241 | 0° C | 69% | 1026.7 hPa | 0 mm | - | 13 W/m² | - |
| 1777434921 | 0° C | 69% | 1026.7 hPa | 0 mm | - | 11 W/m² | - |
| 1777434633 | 0° C | 69% | 1026.6 hPa | 0 mm | - | 10 W/m² | - |
| 1777434345 | 0° C | 69% | 1026.5 hPa | 0 mm | - | 8 W/m² | - |
| 1777434025 | 0° C | 68% | 1026.4 hPa | 0 mm | - | 6 W/m² | - |
| 1777433755 | 0° C | 68% | 1026.5 hPa | 0 mm | - | 4 W/m² | - |
| 1777433417 | 0° C | 68% | 1026.4 hPa | 0 mm | - | 3 W/m² | - |
* Rain latest hour (hover to see other rain measurements)
** Current wind speed in m/s (hover to see current wind gust speed)